Miscellaneous Local Product
Issued by NWS Hastings, NE

Home | Current Version | Previous Version | Text Only | Print | Product List | Glossary On
Versions: 1 2 3 4 5 6 7 8 9 10 11 12 13 14 15 16 17 18 19 20 21 22 23 24 25 26 27 28 29 30 31 32 33 34 35 36 37 38 39 40 41 42 43 44 45 46 47 48 49 50
000
AXUS43 KGID 192002
MISGRI

GID CWA HOURLY WEATHER ROUNDUP
NATIONAL WEATHER SERVICE HASTINGS NE
200 PM CST SUN NOV 19 2017

NOTE: "FAIR" INDICATES FEW OR NO CLOUDS BELOW 12,000 FEET WITH NO
SIGNIFICANT WEATHER AND/OR OBSTRUCTIONS TO VISIBILITY.

...SOUTH CENTRAL NEBRASKA...

CITY           SKY/WX    TMP DP  RH WIND       PRES   REMARKS
GRAND ISLAND   SUNNY     55  26  32 SW17      30.03F
KEARNEY        SUNNY     55  25  31 SW16G22   30.03F
HASTINGS       SUNNY     55  20  25 SW14G28   30.04F
ORD            SUNNY     56  21  25 W18       29.97F
YORK           SUNNY     55  21  26 SW15G22   30.04F
AURORA         SUNNY     55  24  30 SW16      30.03F
LEXINGTON      SUNNY     56  24  28 SW16G22   30.02F
HOLDREGE       SUNNY     57  25  28 SW13G20   30.02F
HEBRON         SUNNY     56  24  28 SW13      30.07F

...NEBRASKA PANHANDLE...

CITY           SKY/WX    TMP DP  RH WIND       PRES   REMARKS
CHADRON        CLOUDY    55  17  22 W8        29.92F
ALLIANCE       SUNNY     57  14  18 W15       29.94F
SCOTTSBLUFF    CLOUDY    56   6  13 W21G31    29.97F
SIDNEY         SUNNY     58  19  22 SW14      30.00F

...WESTERN AND NORTH CENTRAL NEBRASKA...

CITY           SKY/WX    TMP DP  RH WIND       PRES   REMARKS
VALENTINE      SUNNY     58  19  22 W12       29.91F
AINSWORTH      SUNNY     55  22  27 W10       29.92F
ONEILL         SUNNY     55  26  32 SW12      29.96F
BROKEN BOW     SUNNY     57  23  26 W17       29.98F
IMPERIAL       SUNNY     60  18  19 SW10      30.01F
NORTH PLATTE   SUNNY     58  21  24 W15       30.00F
MCCOOK         SUNNY     59  22  24 SW10      30.02F

...EASTERN NEBRASKA...

CITY           SKY/WX    TMP DP  RH WIND       PRES   REMARKS
NORFOLK        SUNNY     54  24  31 SW16      29.96F
SO SIOUX CITY  SUNNY     54  25  32 SW17      29.98F
TEKAMAH        SUNNY     52  29  41 SW17      30.03F
COLUMBUS       SUNNY     54  23  30 SW14      30.03F
ALBION         SUNNY     55  24  29 SW18      29.99F
OMAHA EPPLEY   MOSUNNY   52  28  39 S14       30.06F
OFFUTT AFB     SUNNY     53  28  38 S13G18    30.05F
MILLARD        SUNNY     55  27  35 SW10      30.06F
LINCOLN        SUNNY     55  23  28 SW17      30.07F
NEBRASKA CITY  SUNNY     54  30  38 SW14      30.08F
BEATRICE       SUNNY     55  25  31 SW16G24   30.08F
FALLS CITY     SUNNY     54  27  35 SW14      30.10F

...NORTHERN KANSAS...

CITY           SKY/WX    TMP DP  RH WIND       PRES   REMARKS
GOODLAND       CLOUDY    58  17  20 SW12      30.04F
HILL CITY      SUNNY     59  20  22 SW16      30.06F
NORTON         CLEAR     59  12  15 SW14      30.03F
PHILLIPSBURG   SUNNY     61  19  20 S15G21    30.06F
SMITH CENTER   SUNNY     57  19  23 SW14      30.07F
HAYS           SUNNY     59  19  21 SW17G26   30.09
RUSSELL        SUNNY     61  20  20 SW23      30.08F
CONCORDIA      SUNNY     57  21  24 SW14      30.09F
SALINA         SUNNY     62  22  21 SW18      30.12F
TOPEKA         SUNNY     56  27  32 SW12G21   30.15F



USA.gov is the U.S. government's official web portal to all federal, state and local government web resources and services.